Погода в Арктик Виллидж

США     68°07′32″N   145°32′41″W
темп.,
°C
ветер,
м/с
пор.,
м/с
влажн.,
%
обл.,
%
осадки,
мм/ч
давл.,
гПа
погр.,
м
31 июля, сб
сб3101:00+10ю3483100 0.0 1012102
04:00+9ю3492100 0.0 1012118
07:00+10ююв3489100 0.0 1012303
10:00+11ююв3792100 0.0 1012531
13:00+13ю5877100 0.0 1012782
16:00+13ю51077100 0.1 1012885
19:00+15ю51061100 0.0 1011954
22:00+13ю4670100 0.0 1012184
1 августа, вс
вс101:00+12ююв3575100 0.0 1012113
04:00+11ю3483100 0.0 1013110
07:00+11ю3496100 0.9 1013195
10:00+11ю4698100 1.8 1013352
13:00+11ю4597100 0.1 1013332
16:00+14ююз457999 0.2 1013706
19:00+15ю4575100 0.1 1013413
22:00+11ю3498100 1.1 1015143
2 августа, пн
пн201:00+11ю3499100 0.4 1015139
04:00+11ю3399100 0.4 1015124
07:00+11юз1195100 0.0 1015137
10:00+13ссз118375 0.0 1015473
13:00+16ссз227081 0.0 1015737
16:00+16ссз4370100 0.0 1016410
19:00+14сз2375100 0.0 1016118
22:00+13сз2279100 0.0 101751
3 августа, вт
вт301:00+12с4683100 0.0 1019172
04:00+9с458725 0.0 102195
07:00+9ссв34794 0.0 1023245
10:00+13ссв11625 0.0 1023725
13:00+15юз11495 0.0 10221253
16:00+18юв11395 0.0 10211545
19:00+18ю22416 0.0 10211433
22:00+13ююв456635 0.0 1022103
4 августа, ср
ср401:00+9ююв226647 0.0 102411
04:00+7вюв117017 0.0 102410
07:00+10ссв116396 0.0 102387
10:00+13в115668 0.0 1021455
13:00+17ююв224627 0.0 1019942
16:00+19ююв223656 0.0 10171224
19:00+19ю323555 0.0 10171148
22:00+14ю335623 0.0 101729